Dewpoint
71 70 69 70 69 71 71 69 69 69 72 73 70 70 71 70 71 70 72 76 76 76 75 73 73 73 73 73 73 74 74 73 73 73 73 73 74 74 75 74 75 75 74
71 70 68 68 68 69 71 71 71 70 69 70 69 70 69 71 71 70 72 73 76 75 76 75 74 73 73 73 73 73 73 74 74 74 75 75 75 75 75 75 75 75 75
69 70 68 68 69 70 72 69 68 68 66 64 67 70 70 70 70 70 72 72 74 76 76 76 75 75 75 73 73 74 75 75 75 75 75 75 75 75 75 75 75 74 74
70 70 70 69 70 71 70 69 67 65 64 67 68 69 69 71 70 71 71 71 71 71 75 76 75 75 75 73 73 75 75 75 75 75 75 75 75 74 73 73 73 73 74
69 70 71 71 70 71 67 67 65 63 65 63 65 68 69 71 70 72 70 70 70 71 72 76 75 75 74 73 74 75 75 75 75 75 75 74 74 73 73 72 73 72 72
70 70 72 71 71 71 71 68 65 66 67 67 69 69 67 70 70 72 69 72 71 71 71 73 74 73 75 75 76 75 75 75 75 75 75 74 74 73 73 72 71 71 71
70 70 72 71 71 71 71 69 68 68 69 68 65 64 64 68 68 68 70 72 71 71 71 72 73 72 73 75 75 75 75 75 75 75 75 74 74 73 73 72 71 70 71
69 70 70 73 69 61 66 69 69 69 68 68 65 62 59 62 65 69 71 71 71 72 71 72 72 70 71 73 74 75 75 74 75 75 75 75 74 74 73 73 72 71 71
68 70 71 73 67 61 69 70 70 68 69 65 69 62 58 57 63 68 71 69 71 71 72 72 71 70 72 73 74 75 74 74 75 74 74 75 74 74 74 73 72 71 71
68 69 71 71 67 72 71 71 71 70 69 68 70 68 65 63 61 63 68 68 69 69 70 71 71 72 72 73 74 74 73 73 74 75 74 74 74 74 73 73 73 72 72
70 69 70 71 70 71 72 70 70 69 71 70 70 65 67 66 68 65 64 65 65 66 70 71 67 73 71 71 71 73 73 73 73 74 75 75 75 74 73 73 73 73 72
69 70 70 71 71 72 71 70 71 69 71 71 71 69 67 66 66 65 65 64 66 67 69 70 72 71 73 72 73 73 73 73 73 73 73 73 74 74 74 74 74 74 73
66 69 71 72 72 72 72 71 71 71 70 70 71 71 70 68 68 68 66 66 65 67 69 70 71 72 73 73 73 73 73 72 71 71 71 71 71 71 71 72 72 73 74
68 69 73 73 71 72 71 72 71 71 70 71 70 70 72 71 71 69 68 67 64 66 69 68 73 74 73 73 73 73 71 71 70 69 69 69 70 71 71 71 72 72 73
69 68 68 68 71 72 72 73 70 70 72 71 71 71 71 70 69 69 70 69 66 64 65 69 70 73 73 72 72 71 70 70 69 68 68 68 69 69 70 70 71 71 72
68 69 70 69 68 70 72 72 71 71 70 70 71 71 71 71 71 70 69 70 71 66 64 70 69 72 73 73 73 70 68 69 68 68 68 67 68 68 69 69 69 70 70
67 70 70 69 65 69 71 72 71 71 71 69 70 71 70 70 71 71 71 69 67 68 66 69 70 72 73 72 72 70 69 67 67 67 67 66 66 67 67 68 68 68 69
71 71 71 71 71 72 72 72 71 70 71 71 69 71 71 71 70 71 71 70 70 70 68 66 69 71 71 71 71 68 67 67 66 67 66 66 65 65 65 65 66 66 66
71 71 71 71 72 71 72 72 71 72 72 71 72 72 72 72 70 71 70 70 70 71 70 68 68 70 71 73 72 71 71 68 67 66 65 64 64 64 64 63 63 63 63
71 71 71 72 72 72 72 72 71 71 72 72 72 73 73 72 71 71 70 70 70 69 70 69 69 68 70 71 71 69 68 69 64 64 64 63 63 64 64 62 62 61 60
72 72 72 71 72 72 71 72 72 72 72 71 72 72 72 73 72 72 71 70 70 70 69 69 69 68 67 69 69 69 69 69 69 65 63 62 62 62 62 62 62 63 61
73 71 72 72 72 71 68 68 70 71 71 71 71 72 72 71 71 69 68 69 71 69 68 68 67 67 67 68 70 70 68 67 66 69 67 62 61 61 61 61 62 62 61
70 70 71 71 71 71 68 67 68 68 69 71 71 71 71 70 69 70 69 67 67 67 68 69 68 68 68 69 69 69 68 67 66 66 67 66 63 62 63 62 61 61 60
70 70 70 71 71 71 68 66 67 68 69 70 70 71 70 70 70 71 70 70 70 70 69 68 68 68 68 70 70 70 69 69 68 68 68 65 65 63 60 59 61 61 59
70 70 70 70 70 71 67 64 66 68 69 70 70 70 70 70 68 65 68 69 69 70 69 65 66 65 64 64 67 69 69 68 68 69 68 66 66 65 56 55 57 60 58
70 71 70 70 69 70 62 62 64 67 68 69 70 69 63 65 61 61 68 68 68 68 69 69 71 69 65 67 65 68 70 68 67 66 68 67 63 60 59 57 53 55 55
Lifted_Index
-2 -2 -2 -2 -3 -3 -4 -4 -3 -3 -3 -2 -2 -2 -3 -3 -3 -3 -4 -5 -5 -5 -5 -4 -3 -3 -3 -3 -3 -3 -3 -3 -3 -2 -2 -2 -3 -3 -3 -3 -3 -3 -3
-2 -2 -2 -2 -3 -3 -4 -4 -3 -3 -2 -1 -1 -2 -3 -3 -3 -3 -4 -5 -6 -6 -5 -4 -4 -4 -3 -3 -3 -3 -3 -2 -3 -3 -3 -3 -3 -3 -3 -3 -3 -3 -3
-2 -2 -3 -3 -3 -4 -4 -4 -3 -2 -1 -1 -1 -2 -3 -3 -3 -3 -3 -4 -5 -5 -6 -5 -4 -4 -3 -3 -2 -2 -3 -2 -2 -3 -3 -3 -2 -2 -2 -2 -2 -2 -2
-3 -3 -4 -4 -4 -4 -4 -3 -2 -1 -0 -1 -1 -2 -3 -3 -3 -3 -3 -4 -4 -5 -5 -5 -5 -4 -4 -3 -3 -3 -3 -2 -2 -2 -2 -2 -2 -1 -1 -1 -1 -1 -1
-3 -3 -4 -5 -4 -4 -4 -3 -2 -1 -1 -1 -1 -2 -3 -3 -4 -4 -4 -3 -3 -4 -4 -5 -5 -5 -4 -3 -3 -3 -3 -2 -2 -2 -2 -1 -1 -1 -0 0 0 -0 -0
-3 -4 -5 -5 -5 -5 -4 -3 -3 -2 -2 -1 -1 -1 -2 -3 -4 -4 -4 -4 -3 -3 -3 -4 -4 -4 -4 -4 -4 -3 -3 -2 -2 -2 -2 -1 -1 -0 0 0 1 1 1
-3 -4 -5 -5 -5 -5 -4 -4 -4 -3 -3 -2 -0 0 -0 -2 -3 -3 -4 -4 -3 -3 -3 -3 -3 -3 -4 -4 -4 -4 -3 -3 -2 -2 -2 -1 -1 -0 0 1 1 2 2
-3 -4 -4 -5 -5 -4 -4 -4 -4 -3 -2 -2 -1 1 1 -1 -2 -3 -3 -3 -3 -3 -3 -3 -3 -3 -3 -3 -3 -3 -3 -3 -2 -2 -2 -2 -1 -1 -0 0 1 2 2
-3 -3 -4 -5 -5 -4 -4 -4 -4 -4 -3 -2 -1 -0 0 -0 -1 -2 -3 -3 -3 -3 -3 -3 -3 -3 -3 -3 -3 -3 -3 -2 -3 -3 -2 -2 -2 -1 -1 -0 1 1 2
-3 -3 -4 -5 -5 -5 -5 -5 -5 -4 -4 -3 -2 -2 -1 -0 -1 -2 -2 -2 -1 -2 -2 -3 -3 -3 -3 -3 -3 -3 -2 -2 -3 -3 -3 -2 -2 -2 -1 -1 -0 1 1
-4 -4 -4 -4 -5 -5 -5 -5 -5 -5 -5 -4 -3 -2 -2 -1 -1 -2 -2 -1 -0 -1 -2 -2 -3 -3 -3 -2 -2 -2 -2 -2 -2 -2 -3 -2 -2 -2 -2 -1 -1 -1 -0
-4 -4 -4 -5 -5 -5 -5 -5 -5 -5 -5 -5 -4 -3 -2 -2 -2 -2 -2 -1 -1 -1 -1 -2 -3 -3 -3 -2 -2 -2 -2 -1 -1 -1 -1 -1 -1 -2 -2 -2 -2 -2 -1
-4 -5 -5 -5 -5 -5 -5 -5 -5 -6 -5 -5 -4 -4 -3 -3 -2 -2 -2 -2 -1 -1 -2 -3 -3 -3 -3 -3 -3 -2 -1 -1 -1 -0 -0 0 0 -0 -1 -1 -1 -1 -2
-4 -4 -5 -5 -5 -5 -5 -5 -5 -6 -5 -5 -5 -4 -4 -3 -3 -2 -2 -2 -2 -2 -2 -3 -3 -4 -3 -3 -3 -2 -1 -1 -0 0 1 1 1 1 0 -0 -0 -1 -1
-4 -4 -4 -4 -4 -5 -5 -5 -5 -5 -5 -5 -5 -5 -4 -4 -3 -3 -2 -3 -3 -2 -2 -3 -3 -4 -4 -3 -3 -2 -2 -1 -0 0 0 0 1 1 1 1 1 0 0
-4 -4 -4 -3 -4 -4 -5 -5 -5 -5 -5 -5 -5 -4 -4 -4 -3 -3 -3 -3 -2 -2 -2 -2 -3 -3 -3 -3 -3 -2 -2 -2 -1 -0 -0 -0 0 0 1 1 1 1 1
-4 -4 -4 -4 -4 -4 -5 -5 -5 -5 -5 -4 -4 -4 -4 -4 -3 -3 -3 -2 -2 -2 -2 -2 -2 -3 -3 -3 -3 -3 -3 -2 -2 -1 -0 -0 -0 -0 0 0 0 1 1
-4 -4 -4 -4 -4 -5 -5 -5 -5 -5 -5 -4 -4 -4 -5 -4 -4 -3 -3 -3 -2 -2 -2 -2 -2 -3 -3 -3 -3 -3 -3 -2 -2 -1 -1 -0 -0 -0 -0 -0 0 1 1
-5 -5 -5 -5 -5 -5 -5 -5 -4 -4 -5 -4 -5 -5 -5 -5 -4 -3 -3 -3 -3 -2 -2 -2 -2 -2 -3 -3 -3 -3 -3 -2 -2 -2 -1 -1 -1 -0 -0 -0 0 1 1
-5 -5 -4 -5 -5 -5 -5 -5 -5 -4 -4 -5 -5 -5 -5 -5 -4 -4 -3 -3 -3 -2 -2 -2 -2 -2 -3 -3 -3 -3 -3 -2 -2 -2 -2 -1 -1 -1 -1 -0 0 1 1
-5 -5 -5 -5 -5 -5 -5 -5 -5 -5 -5 -5 -5 -5 -5 -5 -4 -4 -3 -3 -3 -3 -2 -2 -2 -2 -2 -2 -2 -2 -2 -2 -2 -2 -2 -2 -1 -1 -1 -0 -0 0 0
-5 -5 -5 -5 -5 -5 -5 -5 -5 -5 -4 -4 -4 -4 -4 -4 -4 -3 -3 -3 -3 -3 -2 -2 -2 -2 -2 -2 -2 -2 -2 -2 -2 -2 -2 -2 -1 -1 -1 -0 -0 0 0
-5 -5 -5 -5 -5 -5 -5 -5 -5 -4 -4 -4 -4 -4 -4 -4 -3 -3 -3 -3 -3 -3 -2 -2 -2 -2 -2 -2 -2 -2 -2 -2 -2 -2 -2 -2 -2 -1 -1 -1 -0 0 1
-4 -4 -4 -4 -4 -4 -4 -4 -4 -4 -3 -3 -3 -3 -3 -3 -3 -3 -3 -3 -3 -3 -3 -3 -3 -2 -2 -2 -2 -2 -2 -2 -2 -2 -2 -2 -2 -1 -1 -1 -1 -0 0
-4 -3 -3 -3 -4 -4 -4 -4 -3 -3 -3 -3 -3 -3 -2 -2 -2 -2 -2 -3 -3 -3 -3 -3 -3 -3 -3 -3 -2 -2 -2 -2 -2 -2 -2 -2 -2 -1 -1 -1 -1 -0 -0
-3 -3 -3 -3 -3 -3 -3 -3 -3 -2 -2 -2 -2 -2 -2 -2 -2 -2 -2 -3 -3 -3 -3 -3 -3 -3 -3 -3 -3 -2 -2 -2 -2 -2 -2 -2 -1 -1 -1 -1 -1 -1 -0